Location: Bonnefond
(46.0333°N, 1.7833°E)
Time: 10:48:18
(UTC+00:00)

Daily predictions for brighter satellites

Satellite Brightness Start Highest point End
(mag) Time Altitude Azimuth Time Altitude Azimuth Time Altitude Azimuth
Cosmos 1867 3.7 16:32:29 10° SW 16:37:56 86° NW 16:43:26 10° NE
Envisat 3.0 16:37:16 10° SSE 16:42:18 71° ENE 16:47:23 10° N
Lacrosse 5 rocket 1.1 16:42:40 10° SW 16:46:21 77° NW 16:49:57 10° NE
Cosmos 773 Rocket 4.5 16:43:03 10° S 16:48:01 43° ESE 16:53:01 10° NNE
YAOGAN 6 2.5 16:47:46 10° SSE 16:51:22 66° ENE 16:54:56 10° N
Cosmos 1606 2.7 16:49:44 10° S 16:53:38 89° WNW 16:57:32 10° N
Cosmos 962 Rocket 4.5 16:47:40 10° N 16:53:59 81° E 17:00:10 10° S
Cosmos 2297 3.7 16:48:25 10° NNW 16:54:09 86° ENE 16:59:53 10° SSE
OE (NEXTSAT) 4.3 16:51:33 10° W 16:55:01 88° N 16:58:29 10° E
AQUARIUS 4.4 16:52:15 10° SE 16:56:34 49° ENE 17:00:55 10° N
SL-16 R/B 2.2 16:52:14 10° SSW 16:57:53 79° ESE 17:03:35 10° NNE
CZ-4B R/B 2.8 16:56:26 10° NE 16:58:41 18° E 17:00:57 10° SE
Landsat 5 3.6 16:55:27 10° NNE 16:59:56 83° ESE 17:04:27 10° SSW
BREEZE-M DEB (TANK) 2.0 16:59:06 10° SW 17:01:56 56° SSE 17:03:26 15° ENE
SMAP 3.0 17:00:56 10° SSE 17:05:33 69° ENE 17:10:12 10° N
Sich 1 3.7 17:03:47 10° NNW 17:08:06 60° W 17:12:21 10° S
YAOGAN 1 4.2 17:09:18 14° ENE 17:09:38 14° ENE 17:11:51 10° NNE
CZ-4C R/B 3.5 17:07:20 10° N 17:10:57 64° WNW 17:14:30 10° SSW
Cosmos 1151 Rocket 3.0 17:07:51 10° S 17:12:03 63° E 17:16:18 10° NNE
Cosmos 1470 Rocket 3.8 17:08:51 10° N 17:13:01 45° ENE 17:17:08 10° SSE
CSL-04 DEB 4.5 17:11:27 10° NNE 17:15:36 62° ESE 17:19:50 10° S
Cosmos 864 Rocket 4.5 17:12:36 10° N 17:18:55 68° E 17:25:07 10° SSE
Cosmos 1515 Rocket 4.0 17:16:03 10° SSE 17:20:07 39° E 17:24:15 10° NNE
CZ-2C R/B 3.9 17:17:40 10° ESE 17:21:31 23° ENE 17:25:18 10° NNE
SL-8 Rocket 4.0 17:15:52 10° N 17:22:09 89° E 17:28:27 10° S
Cosmos 482 Debris 3.1 17:20:41 10° WNW 17:22:26 51° SSW 17:23:46 16° SE
TIMED 4.5 17:19:09 10° S 17:23:27 65° ESE 17:27:39 11° NNE
Cosmos 2341 Rocket 4.4 17:17:24 10° NNW 17:23:41 70° W 17:29:59 10° S
Cosmos 1238 Rocket 4.2 17:21:58 10° NNE 17:25:08 21° ENE 17:28:45 10° SE
TELKOM 3 4.1 17:23:04 10° WNW 17:25:37 32° N 17:26:18 27° NE
COSMO-SKYMED 1 3.3 17:23:06 13° NE 17:26:23 31° E 17:30:14 10° SSE
Cosmos 1959 Rocket 4.5 17:21:20 10° N 17:27:45 82° E 17:34:06 10° S
X-37B 1.1 17:24:47 10° WSW 17:27:52 48° SSE 17:29:28 24° E
USA 281 3.8 17:23:02 10° ESE 17:28:47 34° NE 17:34:33 10° N
USA 81 4.1 17:26:26 10° N 17:31:45 88° W 17:37:02 10° S
Cosmos 2228 Rocket 4.0 17:28:59 10° SSE 17:32:48 27° E 17:34:29 21° NE
CORIOLIS 4.3 17:27:30 10° SSE 17:32:55 81° WSW 17:38:24 10° NNW
Helios 1A Rocket 4.1 17:33:26 22° NE 17:33:26 22° NE 17:36:09 10° NNE
Meteor 1-4 Rocket 2.4 17:30:26 10° S 17:34:00 76° E 17:37:26 11° NNE
Cosmos 2285 Rocket 4.4 17:27:57 10° NNW 17:34:17 68° WSW 17:40:33 10° S
H-2A R/B 3.1 17:35:18 21° E 17:36:26 23° ENE 17:40:23 10° NNE
Cosmos 1812 3.7 17:33:24 10° SSE 17:36:35 26° E 17:36:35 26° E
Cosmos 1821 Rocket 4.3 17:31:50 10° N 17:37:47 44° ENE 17:43:46 10° SE
USA 267 3.8 17:34:11 19° ENE 17:38:22 41° NNE 17:44:26 10° NW
Cosmos 1939 Rocket 2.9 17:35:00 10° SSE 17:38:46 52° ENE 17:42:37 10° N
Cosmos 1328 Rocket 3.7 17:35:41 10° SSW 17:40:00 75° W 17:44:22 10° N
CZ-4 R/B 2.3 17:41:26 27° ENE 17:41:26 27° ENE 17:44:36 10° N
BREEZE-M DEB (TANK) 3.8 17:39:18 10° SSW 17:42:03 18° SSE 17:42:53 16° SE
Cosmos 44 Rocket 3.9 17:37:34 10° NNW 17:42:27 40° NE 17:45:09 23° E
Cosmos 1933 Rocket 3.5 17:38:40 10° N 17:43:07 64° ENE 17:47:32 10° SSE
IRS-1C Rocket 4.1 17:40:01 10° SSE 17:45:09 56° ENE 17:50:20 10° N
Cosmos 1602 3.9 17:41:46 10° NNW 17:45:41 76° W 17:49:32 10° S
Cosmos 2181 Rocket 4.4 17:41:37 10° SSW 17:47:59 67° W 17:54:19 10° N
Lacrosse 4 Rocket 3.6 17:46:36 10° SE 17:46:59 11° SE 17:46:59 11° SE
NOAA 11 4.3 17:43:31 10° S 17:48:56 78° WSW 17:54:25 10° NNW
Cosmos 1680 Rocket 4.3 17:44:55 10° SSE 17:49:27 30° E 17:50:18 28° E
Cosmos 2237 Rocket 4.3 17:45:23 10° W 17:49:31 21° NW 17:53:43 10° N
CZ-4B R/B 4.1 17:45:09 10° S 17:50:16 48° W 17:55:24 10° NNW
SL-24 R/B 4.0 17:49:33 35° ENE 17:50:33 44° E 17:54:03 10° S
Cosmos 1603 3.7 17:47:58 10° S 17:53:29 60° ESE 17:56:56 23° NE
CZ-2D R/B 3.2 17:51:53 10° SSE 17:55:37 56° ENE 17:59:24 10° N
Cosmos 1943 3.3 17:51:21 10° S 17:56:51 57° ESE 17:59:58 26° NE
H-2A R/B 3.7 17:54:21 10° N 17:58:07 33° WNW 18:01:58 10° SW
Cosmos 2369 Rocket 2.3 17:53:11 10° NNW 17:58:54 81° WSW 18:04:31 10° SSE
Cosmos 1538 Rocket 4.1 17:53:37 10° SSW 17:59:00 81° WNW 18:03:43 14° NNE
Cosmos 1943 Rocket 3.1 17:54:43 10° NW 18:00:04 50° WSW 18:05:25 10° S
Meteor 1-14 Rocket 4.5 17:55:13 10° NNW 18:01:13 80° W 18:07:11 10° S
Meteor 1-5 Rocket 4.2 17:55:27 10° N 18:01:20 65° ENE 18:07:01 10° SSE
Cosmos 1782 3.4 17:58:31 10° SSW 18:02:25 56° WNW 18:06:22 10° N
Okean O Rocket 3.3 17:58:28 10° SSW 18:02:28 36° W 18:06:33 10° NNW
Cosmos 1461 4.4 17:59:51 10° SSE 18:02:44 24° SE 18:02:44 24° SE
Okean-O 2.7 17:59:42 10° SE 18:04:00 51° ENE 18:08:18 10° N
ISS -2.7 18:03:10 10° WNW 18:05:55 34° N 18:05:55 34° N
ARGOS 4.2 18:08:32 26° NNE 18:08:32 26° NNE 18:11:32 10° N
CENTAUR R/B 3.1 18:01:49 10° S 18:06:58 34° ESE 18:07:44 33° E
Cosmos 2112 Rocket 4.5 18:05:06 10° S 18:09:53 38° ESE 18:09:53 38° ESE
Cosmos 2056 Rocket 4.3 18:05:30 10° N 18:09:29 32° NE 18:09:29 32° NE
ERS-2 2.6 18:10:46 22° N 18:12:54 58° WNW 18:16:30 10° SSW
SKYMED 2 3.5 18:11:44 21° N 18:14:36 84° WNW 18:18:56 10° SSW
NOSS 3-2 (C) 3.9 18:09:58 10° S 18:15:01 36° ESE 18:15:09 36° ESE
Cosmos 1869 Rocket 3.5 18:13:24 10° N 18:22:43 - SSE 18:17:49 61° ENE
BREEZE-M DEB (TANK) 3.3 18:11:06 10° SW 18:19:29 57° SSE 18:19:59 53° SE
Meteor 1-27 Rocket 4.2 18:16:01 10° SSE 18:20:11 39° ESE 18:20:11 39° ESE
Meteor 1-10 Rocket 4.0 18:19:58 10° S 18:25:36 76° E 18:28:50 26° NNE
Lacrosse 5 rocket 3.0 18:23:12 10° WNW 18:25:52 20° NNW 18:25:52 20° NNW
BREEZE-M DEB (TANK) 4.3 18:25:50 10° WNW 18:26:37 20° WNW 18:26:37 20° WNW
Cosmos 371 Rocket 4.0 18:24:41 10° NNW 18:28:01 38° NNE 18:28:01 38° NNE
CZ-4B R/B 3.5 18:29:34 18° NNW 18:30:53 23° WNW 18:33:28 10° SW
NOSS 3-2 (A) 3.2 18:34:28 10° SW 18:40:08 85° SE 18:41:27 58° NE
SL-16 R/B 4.3 18:38:26 10° W 18:42:41 21° NW 18:46:57 10° N
YAOGAN 1 3.4 18:46:28 44° NNW 18:46:28 44° NNW 18:49:31 10° NNW
Cosmos 1535 Rocket 4.3 18:39:13 10° N 18:45:21 75° E 18:51:28 10° SSE
USA 215 3.1 18:46:42 59° ENE 18:48:02 78° SE 18:54:35 10° SW
Cosmos 1656 Rocket 4.3 18:48:24 10° NW 18:53:52 53° WSW 18:58:59 11° S
MOS 1 Rocket 3.7 18:52:43 48° N 18:54:17 75° WNW 18:59:38 10° SSW
USA 238 DEB 3.6 18:52:54 10° SW 18:59:29 84° NW 19:00:35 65° NNE
USA 238 3.5 18:52:59 10° SW 18:59:35 85° NW 19:00:39 66° NNE
Cosmos 158 Rocket 4.4 18:55:39 10° SW 19:00:30 53° WNW 19:00:46 53° NW
CZ-2C R/B 3.8 18:56:23 10° S 19:01:10 46° W 19:05:49 10° NNW
COSMO-SKYMED 1 4.5 19:00:19 19° NNW 19:02:27 28° WNW 19:06:09 10° SW
X-37B 3.9 19:01:12 10° W 19:01:44 14° W 19:01:44 14° W
Cosmos 1238 Rocket 4.5 19:00:54 10° NNW 19:04:40 38° W 19:09:11 10° SSW
Cosmos 1934 Rocket 4.1 19:00:57 10° NNW 19:07:18 73° W 19:13:33 10° S
CSL-04 Debris 4.4 19:09:14 69° W 19:09:14 69° W 19:14:39 10° NNW
USA 281 3.7 19:06:32 10° S 19:12:59 58° WSW 19:19:29 10° NNW
H-2A R/B 2.7 19:15:55 53° W 19:15:55 53° W 19:20:34 10° NNW
CZ-4 R/B 3.7 19:17:28 22° WNW 19:17:28 22° WNW 19:19:33 10° NW
USA 267 3.2 19:21:32 76° NW 19:21:32 76° NW 19:27:34 10° NW
Lacrosse 4 Rocket 4.3 19:23:05 10° SW 19:23:21 12° SW 19:23:21 12° SW
CENTAUR R/B 3.7 19:51:18 10° WSW 19:54:58 37° W 19:54:58 37° W
